Вернуться в каталог

STARLINK-4258

АктивенСвязьVLEO
NORAD 53180·PAYLOAD·🇺🇸 United States

Запущен Jul 17, 2022 с Cape Canaveral Space Force Station

Loading…

Ближайшие Пролёты (ближайшие 24 часа)

TLE

СвежийSource: CelesTrak SupGP

Эпоха: Sep 15, 2026, 01:31 UTC

1 53180C 22083BA  26258.06368056  .00034525  00000+0  10478-2 0  2587
2 53180  53.1588 343.1440 0001166  91.9855 310.8467 15.33527816    10

Отслеживайте STARLINK-4258 в реальном времени с AllMySat

Download on the App Store